Location: Indian Head Village
(40.9803°N, 81.9106°W)
Time: 00:10:25
(UTC+00:00)

Daily predictions for brighter satellites

Satellite Brightness Start Highest point End
(mag) Time Altitude Azimuth Time Altitude Azimuth Time Altitude Azimuth
Cosmos 1980 Rocket 2.2 00:03:24 10° SSW 00:09:03 86° ESE 00:14:47 10° NNE
ERS-2 2.0 00:05:47 10° NNE 00:09:25 67° ESE 00:13:02 10° S
Cosmos 44 3.5 00:04:20 10° NNW 00:09:48 75° ENE 00:15:09 10° SE
SJ-11-01 4.2 00:07:27 10° SSE 00:12:05 72° ENE 00:16:45 10° N
Cosmos 1707 Rocket 4.0 00:08:03 10° N 00:12:10 37° ENE 00:16:13 10° SE
Cosmos 1302 Rocket 4.4 00:07:53 10° SSE 00:12:38 38° ESE 00:17:25 10° NE
Cosmos 1633 Rocket 3.8 00:10:11 10° SSE 00:14:04 31° E 00:17:59 10° NNE
RESURS DK-1 4.4 00:10:25 10° NW 00:14:05 31° WSW 00:17:44 10° S
SAR-Lupe-4 3.4 00:14:02 10° NNE 00:17:38 77° ESE 00:21:11 10° S
Cosmos 2322 Rocket 3.3 00:14:49 10° SSE 00:18:58 22° E 00:21:05 18° ENE
FALCON 9 DEB 4.1 00:19:01 10° WSW 00:22:02 39° NNW 00:24:24 15° NE
Cosmos 1867 3.6 00:17:11 10° SSW 00:22:37 83° WNW 00:28:07 10° NNE
USA 305 3.5 00:19:44 10° WSW 00:23:55 53° NW 00:27:37 13° NE
Cosmos 2082 4.3 00:19:09 10° NNW 00:24:41 60° WSW 00:30:10 10° S
PSLV R/B 4.3 00:21:25 10° N 00:25:32 67° WNW 00:29:34 10° SSW
CZ-4 R/B 2.1 00:25:05 10° S 00:28:49 52° W 00:32:36 10° NNW
Cosmos 1110 Rocket 4.4 00:24:51 10° SSW 00:30:07 66° WNW 00:35:27 10° NNE
USA 307 3.7 00:27:43 10° WSW 00:31:53 49° NW 00:35:12 15° NE
ERBS 3.1 00:29:40 10° SSW 00:32:34 31° SE 00:32:34 31° SE
Meteor 1-20 Rocket 4.1 00:27:38 10° S 00:32:59 61° E 00:38:22 10° NNE
Cosmos 1697 Rocket 4.4 00:28:27 10° WSW 00:33:31 33° WNW 00:38:36 10° N
USA 306 3.9 00:34:05 10° WSW 00:38:10 43° NNW 00:41:15 16° NE
SL-16 R/B 2.5 00:33:05 10° S 00:38:20 41° ESE 00:43:30 11° NE
USA 308 3.9 00:38:07 10° WSW 00:42:12 42° NNW 00:45:05 17° NNE
Ariane Rocket 3.7 00:43:57 30° ENE 00:44:20 31° ENE 00:48:46 10° N
SeaSat 1 3.7 00:40:41 10° NNE 00:45:19 42° WNW 00:49:56 10° SW
Cosmos 1470 Rocket 4.0 00:42:08 10° SSE 00:46:18 40° E 00:50:30 10° NNE
HJ-1C 4.1 00:43:12 10° S 00:46:28 52° W 00:49:45 10° NNW
Cosmos 1689 Rocket 4.2 00:44:20 10° N 00:46:52 28° WNW 00:49:23 10° SW
SJ-6B 3.7 00:51:03 34° NE 00:51:03 34° NE 00:54:07 10° N
DMSP B5D2-2 4.0 00:45:19 10° NNE 00:50:32 65° ESE 00:55:42 10° S
Abrixas rocket 3.5 00:49:34 10° SW 00:50:44 23° SSW 00:50:44 23° SSW
Cosmos 1271 Rocket 2.6 00:49:51 10° N 00:53:36 85° W 00:56:23 17° S
Cosmos 2327 Rocket 4.4 00:48:01 10° S 00:54:20 68° E 01:00:37 10° NNE
Cosmos 1602 3.5 00:53:27 10° S 00:57:18 83° E 01:01:13 10° N
USA 234 3.9 00:51:25 10° NE 00:57:44 54° NW 01:04:02 10° WSW
Cosmos 2263 Rocket 2.0 00:52:21 10° NNW 00:57:57 79° ENE 01:01:17 25° SSE
Cosmos 2154 Rocket 3.9 00:55:01 10° S 01:01:14 77° E 01:07:27 10° N
Cosmos 1461 3.0 00:56:44 10° SSW 01:01:26 78° ESE 01:03:13 38° NE
SL-08 RB Rocket 4.1 00:57:57 10° S 01:02:22 63° W 01:06:52 10° NNW
Okean 1 3.6 00:58:28 10° N 01:01:42 50° NNE 01:01:42 50° NNE
GP-B 3.0 01:02:28 58° E 01:02:29 58° E 01:06:51 10° N
Nadezhda 3 Rocket 3.9 00:57:48 10° N 01:04:09 70° E 01:10:29 10° SSE
Meteor 1-14 Rocket 4.2 00:59:33 10° S 01:05:01 54° E 01:10:25 10° NNE
H-2A R/B 4.0 01:01:57 10° SSW 01:06:43 32° W 01:11:34 10° NNW
Cosmos 1666 Rocket 4.4 01:05:12 10° SSW 01:09:25 49° W 01:13:38 10° N
ARGOS 4.4 01:05:52 10° S 01:10:58 42° W 01:16:07 10° NNW
Cosmos 1610 Rocket 4.4 01:05:55 10° S 01:12:05 88° W 01:18:20 10° N
Cosmos 1862 Rocket 3.5 01:09:00 10° N 01:13:31 89° WSW 01:14:35 52° S
Meteor 2-4 Rocket 4.0 01:13:15 10° N 01:18:17 49° ENE 01:18:17 49° ENE
MetOp-A 4.1 01:17:36 24° S 01:20:57 83° WSW 01:26:21 10° NNW
CZ-2C R/B 3.9 01:19:52 10° N 01:25:03 42° WNW 01:30:06 10° SW
Meteor 1-18 Rocket 4.3 01:19:27 10° N 01:25:25 88° W 01:28:27 31° S
SL-4 R/B 4.2 01:23:54 10° NW 01:25:38 15° NNW 01:25:38 15° NNW
COSMOS 2455 4.0 01:21:45 10° NW 01:27:21 41° WSW 01:32:50 10° S
Lacrosse 5 rocket 3.5 01:29:06 10° WNW 01:32:19 21° WSW 01:33:43 18° SSW
Cosmos 1486 Rocket 4.0 01:27:04 10° NNW 01:31:56 74° NNE 01:31:56 74° NNE
Cosmos 1844 Rocket 4.0 01:30:51 10° N 01:33:48 26° NNE 01:33:48 26° NNE
Cosmos 2360 Rocket 4.4 01:31:50 10° S 01:32:13 12° S 01:32:13 12° S
SME Rocket 4.5 01:32:27 10° NNE 01:41:39 79° WNW 01:47:28 10° SSW
Cosmos 2341 Rocket 3.9 01:40:01 10° S 01:46:22 90° ESE 01:52:42 10° N
Cosmos 962 Rocket 4.5 01:41:10 10° S 01:47:19 79° W 01:53:35 10° N
Cosmos 968 Rocket 4.3 01:54:44 10° NNW 01:59:27 48° W 01:59:27 48° W
Cosmos 2322 Rocket 2.9 01:57:08 10° SW 02:02:34 51° WNW 02:03:06 50° NW
SL-16 R/B 3.9 02:17:37 10° WSW 02:22:31 30° NW 02:25:36 19° N
Cosmos 2082 Rocket 3.5 08:55:33 36° ENE 08:55:33 36° ENE 08:59:09 10° NNE
Cosmos 1980 Rocket 3.4 09:02:29 39° NE 09:02:53 40° ENE 09:08:11 10° SE
USA 229 DEB 4.0 09:16:41 55° N 09:16:41 55° N 09:22:06 10° NNE
USA 229 4.0 09:16:46 56° N 09:16:46 56° N 09:22:12 10° NNE
Cosmos 1833 Rocket 4.2 09:19:26 28° N 09:19:26 28° N 09:22:05 10° NNE
CZ-2C R/B 4.0 09:23:45 10° NNE 09:26:01 27° NNE 09:26:01 27° NNE
NOSS 3-1 (A) 3.8 09:33:11 49° N 09:33:11 49° N 09:38:04 10° NNE
SL-16 R/B 4.5 09:27:47 10° N 09:32:05 21° NE 09:36:20 10° E
Lacrosse 5 4.2 09:34:27 13° N 09:34:33 13° N 09:36:52 10° NNE
Cosmos 494 Rocket 4.3 09:37:05 62° ESE 09:37:10 62° ESE 09:42:15 10° NNE
X-37B 3.7 09:40:27 15° ENE 09:40:27 15° ENE 09:41:08 10° ENE
ALOS 2.6 09:38:08 10° NNE 09:42:44 63° E 09:42:44 63° E
Cosmos 1553 Rocket 4.4 09:37:05 10° S 09:43:23 63° E 09:49:38 10° NNE
Nadezhda 2 Rocket 4.5 09:37:20 10° N 09:43:44 87° E 09:50:10 10° S
H-2A R/B 4.4 09:45:03 29° SW 09:53:39 44° S 09:59:34 10° ESE
Cosmos 1869 4.4 10:00:42 36° N 10:00:42 36° N 10:03:09 10° N
Cosmos 292 Rocket 3.6 09:59:11 84° WNW 09:59:18 86° WSW 10:04:07 10° SSE
ISS -2.0 10:02:06 29° NE 10:02:06 29° NE 10:03:55 10° NE
Cosmos 2221 3.8 09:56:41 10° SSE 10:00:47 41° E 10:04:55 10° NNE
H-2A R/B 2.1 10:03:25 10° SSE 10:07:48 79° ENE 10:12:06 10° N
Cosmos 2344 4.4 10:01:47 10° S 10:09:02 47° ESE 10:16:13 10° NE
Cosmos 1331 Rocket 4.1 10:06:38 10° NNW 10:11:50 76° ENE 10:16:58 10° SSE
Cosmos 2278 3.6 10:10:01 29° NW 10:12:54 62° WSW 10:18:30 10° S
CBERS 1 LM4 rocket 4.2 10:08:50 10° N 10:13:45 78° WNW 10:15:50 34° SSW
CZ-4B R/B 3.2 10:15:40 10° SE 10:18:33 31° ENE 10:21:24 10° N
SeaSat 1 2.4 10:13:50 10° SSE 10:18:41 60° WSW 10:20:53 31° NW
Meteor 1-27 4.3 10:22:23 36° SW 10:24:10 49° WNW 10:29:34 10° N
S3M 3.9 10:20:24 10° S 10:26:30 87° W 10:32:39 10° N
Cosmos 2360 Rocket 4.2 10:26:02 10° N 10:30:49 27° NE 10:35:35 10° ESE
ATLAS CENTAUR R/B 2.3 10:29:37 11° NNW 10:33:23 47° NE 10:37:31 10° SE
CREW DRAGON DEMO-1 DEB 3.3 10:33:52 43° N 10:34:17 48° NNE 10:37:04 10° ESE
FENGYUN 3A 4.0 10:30:48 10° N 10:35:52 41° WNW 10:38:30 25° WSW
Cosmos 2082 Rocket 3.3 10:37:25 25° WNW 10:37:59 25° NW 10:42:40 10° N
Cosmos 1745 Rocket 3.9 10:31:45 10° N 10:38:00 78° W 10:44:18 10° S
Cosmos 1302 Rocket 4.3 10:35:08 10° NNW 10:40:23 70° ENE 10:45:37 10° SSE
Iridium 4 Rocket 4.2 10:43:05 28° W 10:43:55 29° W 10:48:12 10° NNW
COSMO-SKYMED 1 2.5 10:40:02 10° SSE 10:44:22 87° ENE 10:48:44 10° NNW
CZ-4B R/B 3.6 10:40:02 10° NNE 10:44:23 63° E 10:48:50 10° S
NOSS 2-2 (C) 2.9 10:44:15 31° SW 10:45:46 70° NW 10:49:25 10° NNE
ERS-2 4.0 10:43:00 10° SE 10:46:16 32° ENE 10:49:32 10° N
Cosmos 1980 Rocket 2.9 10:44:25 22° WNW 10:46:41 29° WSW 10:51:31 10° SSW
Meteor 1-4 Rocket 2.5 10:43:04 10° S 10:46:48 90° WSW 10:50:32 10° N
CSL-04 DEB 4.3 10:43:15 10° S 10:47:22 78° WSW 10:51:23 10° NNW
Cosmos 1862 3.2 10:44:38 10° N 10:48:43 80° W 10:52:45 10° S
Milstar 3 Cent rocket 4.2 10:47:21 10° SSW 10:50:00 15° SSE 10:53:01 10° SE
Cosmos 1709 Rocket 4.2 10:45:02 10° N 10:51:24 78° E 10:57:47 10° S
Meteor 1-31 Rocket 3.0 10:48:38 10° N 10:52:24 47° WNW 10:56:07 10° SSW
Cosmos 1743 Rocket 3.5 10:50:42 10° N 10:55:12 86° W 10:59:40 10° S
Cosmos 2322 Rocket 2.4 10:50:58 10° NNW 10:56:38 73° ENE 11:02:17 10° SSE
ADEOS 3.7 10:52:10 10° N 10:57:12 49° WNW 11:02:12 10° SW
Cosmos 1606 3.0 10:54:42 10° S 10:58:33 71° E 11:02:26 10° NNE
NOSS 2-2 (E) 3.7 11:00:09 24° W 11:01:41 36° NW 11:05:11 10° NNE
Cosmos 1689 Rocket 3.5 11:02:42 10° SE 11:05:20 38° ENE 11:08:00 10° N
CZ-2C R/B 4.4 11:05:05 10° NW 11:05:24 10° NW 11:05:24 10° NW
CZ-2C R/B 4.2 11:02:35 10° SE 11:07:44 40° ENE 11:12:58 10° N
Lacrosse 4 Rocket 4.0 11:08:34 10° N 11:12:04 22° NE 11:15:30 10° E
Meteor 2-17 Rocket 4.4 11:07:03 10° N 11:13:08 88° W 11:19:11 10° S
PSLV R/B 4.1 11:10:10 10° SSE 11:14:22 83° ENE 11:18:35 10° N
X-37B 1.2 11:12:44 15° WNW 11:15:07 48° NNE 11:18:12 10° E
SL-16 R/B 2.2 11:11:01 10° NNW 11:16:37 61° WSW 11:22:11 10° S
Cosmos 2315 Rocket 4.0 11:12:56 10° SSW 11:19:06 66° W 11:25:18 10° N
Lacrosse 5 4.1 11:16:02 10° NNW 11:19:26 18° NNE 11:22:50 10° ENE
ALOS 3.9 11:17:11 10° NNW 11:19:39 14° WNW 11:21:15 12° W
Cosmos 2219 Rocket 4.3 11:17:21 10° N 11:22:05 27° NE 11:26:49 10° ESE
Cosmos 2237 4.4 11:17:37 10° NNW 11:23:23 81° ENE 11:29:05 10° SSE
Cosmos 1833 4.4 11:19:59 10° SSW 11:25:38 80° ESE 11:31:18 10° NNE
deb Chang Zheng 4 3.8 11:23:23 10° N 11:27:28 46° WNW 11:31:32 10° SW
NOAA 6 4.5 11:24:27 10° NNE 11:29:38 70° ESE 11:34:44 10° S
H-2A R/B 3.2 11:27:22 10° N 11:31:02 39° WNW 11:34:41 10° SW
CENTAUR R/B 4.4 11:24:46 10° NNW 11:32:23 43° NE 11:40:41 10° ESE
SKYMED 2 4.5 11:28:51 10° SSW 11:32:32 27° W 11:36:15 10° NW
Cosmos 1500 Rocket 4.3 11:31:02 10° NNW 11:34:48 30° W 11:38:36 10° SSW
ISS -1.7 11:35:39 10° WNW 11:37:57 17° NNW 11:40:15 10° NNE
MOS 1 Rocket 4.1 11:34:45 10° SSW 11:38:13 24° W 11:41:44 10° NW
Cosmos 2221 4.0 11:35:42 10° WSW 11:38:32 17° WNW 11:41:22 10° NNW
BREEZE M DEB (TANK) 4.2 11:35:40 10° NW 11:38:42 37° NNE 11:46:57 10° E
YAOGAN 6 2.9 11:35:32 10° N 11:38:56 43° WNW 11:42:15 10° SW
CZ-3 R/B 3.8 11:35:25 10° SW 11:42:17 18° S 11:46:01 10° SE
